Location: Gorze? G�rny
(49.8500°N, 19.5000°E)
Time: 19:59:58
(UTC+00:00)

Cosmos 1674 Rocket - Pass Details

Date: 27 September 2021
Orbit: 601 x 631 km, 82.5° (Epoch: 21 October)

Event Time Altitude Azimuth Distance (km) Brightness Sun altitude
Rises 17:28:37 0° 343° (NNW) 2,882 7.4 -10.4°
Reaches altitude 10° 17:30:59 10° 334° (NNW) 1,968 6.6 -10.8°
Maximum altitude 17:34:56 35° 269° (W) 981 5.3 -11.4°
Drops below altitude 10° 17:38:51 10° 203° (SSW) 1,944 6.3 -12.0°
Sets 17:41:10 0° 195° (SSW) 2,840 7.0 -12.4°
